Find Starlink 31967

NORAD ID: 60021 Int'l Des: 2024-111 Owner: SPXS Country: US Constellation: starlink operational
LEOCIRCULAR

Live Position

Loading 3D Globe...

About Starlink 31967

Description loading...

Upcoming Passes

Passes for default location (London). Set your location on the main map for personalized predictions.

Altitude History

Loading altitude history...

Two-Line Element Set

1 60021U 24111F 26106.74281476 .00004160 00000-0 15241-3 0 9999
2 60021 53.1602 258.5803 0001411 108.2716 251.8438 15.30221121104870
Epoch: Apr 16, 2026 • Age: 21 hours

Current Status

Altitude 490.0 km
Velocity 7.62 km/s
Sub-Earth Point -42.81°S, 43.72°E
Launch Date Jun 8, 2024
Age 1.8 years
Type internet

Technical Details

Classification Payload
Mass 730.00 kg
Dry Mass 700.00 kg
Total Mass 730.00 kg
Length 0.30 m
Diameter 4.10 m
Span 29.00 m
Shape Box + pan
Manufacturer SPXS
Bus Type Starlink V2M
Phase Status In Orbit
Owner/State SPXS/US

Most Searched